User: anonymous   Login
Location: Bonny Doon Airfield
(37.0704°N, 122.1252°W)
Time: 09:46:19
(UTC-07:00)
Language:

BREEZE M DEB (TANK) - Orbit

View from above orbital plane
View from above orbital plane
View from above satellite
View from above satellite

Ground track
Ground track

The orbit data is extracted from the following two-line orbital elements,

1 33437U 08057B   17205.46890507 +.00000601 +00000-0 +12870-3 0  9992
2 33437 049.5319 213.8041 4998325 102.9673 315.3748 05.60436035175950
Epoch (UTC): 24 July 2017 11:15:13
Eccentricity: 0.4998325
inclination: 49.5319°
perigee height: 318 km
apogee height: 13701 km
right ascension of ascending node: 213.8041°
argument of perigee: 102.9673°
revolutions per day: 5.60436035
mean anomaly at epoch: 315.3748°
orbit number at epoch: 17595

The dashed part of the orbit path shows where the satellite is in the earth's shadow,  

DLR